Simultaneous Nadir Overpasses (SNOs) Predictions

Prediction of SNOs between AQUA and METOP-B Satellite Orbit:

Table of predicted SNOs for the next 14.0 days since TLE Epoch: 7/17/2020
Index Date (AQUA) Time (AQUA) Lat,Lon (AQUA) SZA (AQUA ) Date (METOP-B) Time (METOP-B) Lat,Lon (METOP-B) SZA (METOP-B ) Distance(km) Time Diff (sec)
1 07/20/2020 12:13:09 73.81, -8.99 53.36 07/20/2020 12:12:45 73.80, -9.07 53.36 2.67 24
2 07/20/2020 13:02:36 -73.89, 158.48 126.55 07/20/2020 13:03:25 -73.89, 158.47 126.56 0.46 49
3 07/23/2020 06:57:46 -73.24,-108.98 126.70 07/23/2020 06:56:39 -73.17,-111.44 126.65 79.46 67
4 07/23/2020 07:47:25 73.84, 57.39 53.95 07/23/2020 07:47:05 73.85, 57.47 53.97 2.93 20
5 07/23/2020 08:36:52 -73.91,-135.14 125.96 07/23/2020 08:37:46 -73.89,-135.12 125.99 2.63 54
6 07/26/2020 02:32:05 -73.43, -42.93 125.89 07/26/2020 02:30:56 -73.37, -44.58 125.87 53.03 69
7 07/26/2020 03:21:40 73.82, 123.88 54.54 07/26/2020 03:21:27 73.80, 123.76 54.53 3.80 13
8 07/26/2020 04:11:07 -73.89, -68.65 125.38 07/26/2020 04:12:07 -73.89, -68.70 125.38 1.72 60
9 07/28/2020 22:06:24 -73.67, 23.00 124.99 07/28/2020 22:05:11 -73.62, 22.40 125.00 19.72 73
10 07/28/2020 22:55:55 73.85,-169.76 55.22 07/28/2020 22:55:46 73.85,-169.71 55.23 1.57 9
11 07/28/2020 23:45:22 -73.92, -2.28 124.70 07/28/2020 23:46:27 -73.89, -2.29 124.74 3.60 65
12 07/31/2020 17:40:41 -73.76, 89.24 124.20 07/31/2020 17:39:29 -73.76, 89.15 124.18 2.87 72
13 07/31/2020 18:30:10 73.83,-103.29 55.89 07/31/2020 18:30:07 73.85,-103.31 55.91 1.86 3
